TIME,DELAY(SENSOR),PRES,OXYGEN,RAWTEMP,T(OPTODE),TCPHASE,FLUOR,BETA(BETA700),BETA(BETA412),BETA(BETA440),CDOM,C(CSC),ED(ED412.20),ED(ED444.00),ED(ED489.60),ED(ED554.30),LU(LU412.10),LU(LU443.90),LU(LU489.70),LU(LU554.70),COMP,TILTX,TILTY,CHECK
1361674211,5809,866.0300292968750000,32.6138000488281250,558.6182861328125000,4.5287079811096190,56.6503105163574200,55,99,100,78,82,15532,0,0,0,0,2147122752,2147773394,2147570075,2147569801,720,3,13,4715
1361677807,5810,919.4099731445312000,38.2726097106933600,564.3881225585938000,4.3498210906982420,55.8172492980957000,55,100,100,77,82,15527,0,0,0,0,2147124992,2147769819,2147572251,2147572123,2726,2,13,43503
1361681407,5810,944.5800170898438000,38.2510604858398440,564.5380859375000000,4.3451671600341800,55.8233718872070300,55,99,99,78,82,15526,0,0,0,0,2147122724,2147766299,2147576941,2147570569,3257,2,13,41481
1361685007,5809,962.6799926757812000,41.3089790344238300,568.3350219726562000,4.2272891998291020,55.4012603759765600,55,99,100,78,82,15524,0,0,0,0,2147122861,2147772443,2147571017,2147569316,503,2,13,10114
1361688607,5813,968.7100219726562000,41.1596107482910160,568.6533813476562000,4.2173981666564940,55.4277114868164060,55,98,101,77,81,15524,0,0,0,0,2147125677,2147768658,2147570404,2147569837,29,2,13,34979
1361692207,5808,973.2700195312500000,40.7191200256347660,568.6375122070312000,4.2178940773010250,55.4940986633300800,56,98,99,77,80,15523,0,0,0,0,2147125796,2147773238,2147574189,2147569389,3580,2,13,26767
1361695807,5809,972.9099731445312000,40.7858886718750000,569.8955078125000000,4.1788082122802730,55.4960708618164060,56,98,99,77,81,15525,0,0,0,0,2147123611,2147775323,2147570925,2147569334,133,2,13,11487
1361699407,5811,971.0800170898438000,40.3677711486816400,569.6818847656250000,4.1854438781738280,55.5554809570312500,55,98,100,80,82,15521,0,0,0,0,2147124973,2147772050,2147573522,2147569115,403,3,13,55370
1361703007,5809,975.8200073242188000,40.5996398925781250,569.4661254882812000,4.1921501159667970,55.5180397033691400,55,101,100,78,82,15521,0,0,0,0,2147123940,2147767076,2147572544,2147565266,78,2,13,29713
1361706607,5810,976.2700195312500000,40.1474494934082000,568.9822998046875000,4.2071819305419920,55.5853996276855500,54,97,101,77,81,15520,0,0,0,0,2147122724,2147767104,2147567213,2147569691,97,2,13,13868
1361710207,5808,977.2899780273438000,40.6296691894531250,569.7551269531250000,4.1831698417663570,55.5177307128906250,54,98,100,80,82,15521,0,0,0,0,2147124233,2147773522,2147572525,2147569051,71,3,13,35347
1361713807,5811,974.4799804687500000,40.5719795227050800,569.6398925781250000,4.1867518424987790,55.5287818908691400,56,98,100,78,81,15517,0,0,0,0,2147123629,2147771026,2147571913,2147565403,3465,2,13,63272
1361717407,5811,971.4299926757812000,40.2122993469238300,569.9984130859375000,4.1756110191345215,55.5821189880371100,55,98,101,78,82,15518,0,0,0,0,2147123273,2147772635,2147571136,2147566912,2966,2,13,40526
1361721007,5811,978.3300170898438000,41.4746208190918000,570.4865722656250000,4.1604371070861820,55.4030914306640600,55,98,99,78,82,15522,0,0,0,0,2147124196,2147766610,2147576393,2147565833,2523,2,13,38960
1361724607,5811,976.6099853515625000,41.5605697631835940,570.6422729492188000,4.1555981636047360,55.3922805786132800,54,98,100,78,81,15520,0,0,0,0,2147128027,2147770697,2147572909,2147566848,3218,2,13,36006
1361728207,5808,970.6599731445312000,41.1396903991699200,570.9943237304688000,4.1446571350097660,55.4537696838378900,54,97,99,77,81,15521,0,0,0,0,2147124772,2147768758,2147575670,2147566482,483,2,13,27298
1361731807,5808,975.1300048828125000,41.5615501403808600,570.9468994140625000,4.1461319923400880,55.3936882019043000,55,98,100,78,82,15519,0,0,0,0,2147123008,2147772370,2147571949,2147570313,261,2,13,17016
1361735407,5808,976.8400268554688000,41.5450897216796900,570.6077270507812000,4.1566729545593260,55.3928718566894500,55,100,100,77,82,15519,0,0,0,0,2147125101,2147771145,2147569874,2147565933,3430,2,13,65237
1361739007,5810,976.5900268554688000,41.4958686828613300,570.7628173828125000,4.1518540382385250,55.4030799865722660,55,99,99,78,81,15517,0,0,0,0,2147125494,2147776740,2147576347,2147567277,3235,2,13,29947
1361742607,5809,974.7199707031250000,41.3441886901855500,571.2357788085938000,4.1371521949768070,55.4291992187500000,55,96,99,78,81,15520,0,0,0,0,2147124434,2147766454,2147574509,2147570614,229,2,13,52455
1361746207,5811,975.7600097656250000,41.5747299194335940,571.0850830078125000,4.1418361663818360,55.3952217102050800,54,97,100,77,82,15519,0,0,0,0,2147125330,2147770340,2147574317,2147569993,3498,2,13,15653
1361749807,5810,981.8699951171875000,41.3079185485839840,570.8018798828125000,4.1506390571594240,55.4308891296386700,54,98,101,77,81,15517,0,0,0,0,2147123840,2147771501,2147573458,2147568649,3449,2,13,41457
1361753407,5808,986.1199951171875000,40.5387191772460940,569.6760864257812000,4.1856269836425780,55.5312690734863300,55,98,99,78,81,15517,0,0,0,0,2147126930,2147774930,2147574198,2147570130,46,2,13,37062
1361757007,5809,984.3099975585938000,39.3834800720214840,568.9597167968750000,4.2078838348388670,55.6989402770996100,55,100,101,78,81,15516,0,0,0,0,2147124123,2147770176,2147572269,2147566656,566,2,13,54232
1361760607,5809,987.0800170898438000,39.9353294372558600,569.3986206054688000,4.1942501068115230,55.6162605285644500,55,98,101,76,82,15517,0,0,0,0,2147123026,2147771538,2147575113,2147566966,2891,2,13,22543
1361764207,5809,985.2000122070312000,40.7401885986328100,569.8482055664062000,4.1802768707275390,55.5052795410156250,55,98,99,78,82,15513,0,0,0,0,2147125723,2147774592,2147576521,2147569417,2342,2,13,57227
1361767807,5809,980.6799926757812000,41.3546295166015600,570.4276733398438000,4.1622700691223145,55.4215011596679700,55,100,101,78,82,15517,0,0,0,0,2147126244,2147775332,2147573138,2147571565,269,2,13,32182
1361771407,5810,976.9199829101562000,41.3445816040039060,571.3065185546875000,4.1349539756774900,55.4321098327636700,55,98,100,79,81,15515,0,0,0,0,2147125330,2147775250,2147571803,2147568658,3398,2,13,54786
1361775007,5807,981.4400024414062000,41.7204589843750000,571.3787841796875000,4.1327037811279300,55.3775596618652340,55,97,100,78,81,15515,0,0,0,0,2147127213,2147773851,2147577106,2147571236,245,2,13,19509
1361778607,5810,982.6500244140625000,41.5591392517089840,570.7432250976562000,4.1524639129638670,55.3905601501464840,53,98,100,77,82,15513,0,0,0,0,2147128045,2147766180,2147573458,2147567049,1456,2,13,22259
1361782207,5808,986.3099975585938000,41.6039199829101560,570.9326782226562000,4.1465721130371090,55.3878288269043000,54,98,100,79,82,15509,0,0,0,0,2147125961,2147767707,2147572086,2147570075,127,2,13,58141
1361785807,5809,977.7100219726562000,41.3920211791992200,571.4165039062500000,4.1315350532531740,55.4265098571777340,55,98,99,78,81,15515,0,0,0,0,2147125101,2147770843,2147575332,2147571346,3072,2,13,55897
1361789407,5807,983.4699707031250000,41.1092109680175800,570.9528198242188000,4.1459479331970215,55.4611701965332000,54,98,101,77,81,15511,0,0,0,0,2147125805,2147772397,2147569435,2147569453,100,3,13,32545
1361793007,5809,988.5200195312500000,40.6286315917968750,569.8400268554688000,4.1805319786071780,55.5187988281250000,54,98,101,78,82,15509,0,0,0,0,2147124032,2147768009,2147574390,2147570441,171,2,13,49176
1361796607,5809,982.1599731445312000,40.2747497558593750,570.2401123046875000,4.1680979728698730,55.5805397033691400,55,100,101,80,82,15511,0,0,0,0,2147123638,2147770715,2147574281,2147570825,3589,2,13,7936
1361800207,5808,985.6199951171875000,41.1586914062500000,570.3914794921875000,4.1633949279785160,55.4491081237793000,55,96,100,77,81,15512,0,0,0,0,2147122313,2147775369,2147572534,2147571136,880,3,13,43675
1361803807,5809,991.3300170898438000,41.2548904418945300,570.1724853515625000,4.1701979637146000,55.4338493347168000,55,98,100,78,83,15511,0,0,0,0,2147126948,2147778084,2147577225,2147572214,841,3,13,45518
1361807407,5812,985.3900146484375000,41.2939796447753900,571.0562744140625000,4.1427330970764160,55.4363899230957000,55,99,100,77,82,15497,0,0,0,0,2147125723,2147774098,2147582848,2147572269,23,2,13,40998
1361811007,5811,980.4899902343750000,40.7600288391113300,571.0421142578125000,4.1431708335876465,55.5117492675781250,54,98,99,78,81,15492,0,0,0,0,2147122395,2147776731,2147574601,2147571044,270,2,13,3578
1361814607,5809,984.3400268554688000,40.7670898437500000,571.0225219726562000,4.1437821388244630,55.5097389221191400,55,98,100,79,81,15497,0,0,0,0,2147123986,2147774564,2147573952,2147570221,78,2,13,57168
1361818207,5809,983.2000122070312000,40.9426803588867200,571.1843872070312000,4.1387481689453125,55.4883804321289060,55,101,100,79,82,15496,0,0,0,0,2147123328,2147774994,2147573513,2147568621,2882,2,13,32134
1361819755,5808,985.9500122070312000,41.4986610412597660,570.4805297851562000,4.1606287956237790,55.3967399597168000,55,106,100,78,82,15496,0,0,0,0,2147124800,2147773705,2147577216,2147567277,2971,2,13,5384
